Regional Weather Roundup
Issued by NWS

Home | Current Version | Previous Version | Graphics & Text | Print | Product List | Glossary On
Versions: 1 2 3 4 5 6 7 8 9 10 11 12 13 14 15 16 17 18 19 20 21 22 23 24 25 26 27 28 29 30 31 32 33 34 35 36 37 38 39 40 41 42 43 44 45 46 47 48 49 50
652
ASUS43 KIND 100209
RWRIN

WEATHER ROUNDUP FOR INDIANA
NATIONAL WEATHER SERVICE INDIANAPOLIS IN
900 PM EST TUE FEB 09 2016

NOTE: "FAIR" INDICATES FEW OR NO CLOUDS BELOW 12,000 FEET WITH NO
SIGNIFICANT WEATHER AND/OR OBSTRUCTIONS TO VISIBILITY.

* - STATION DOES NOT REPORT WEATHER SUCH AS PRECIPITATION OR FOG.

+ - STATION NOT QUALITY CONTROLLED BY THE NATIONAL WEATHER SERVICE.
    USE DATA WITH CAUTION...ESPECIALLY DEWPOINT AND RELATIVE
    HUMIDITY OBSERVATIONS.

INZ001>003-010>013-019-020-100300-
NORTHWEST INDIANA

CITY           SKY/WX    TMP DP  RH WIND       PRES   REMARKS
GARY /AIRPORT/ CLOUDY    19   7  58 W12G23    29.95R WCI   7
KNOX *+        CLOUDY    18  12  79 W14       29.90S WCI   4
LA PORTE +     LGT SNOW  19  15  82 W8G20     29.89S WCI   9
MICHIGAN CITY+ LGT SNOW  19  16  86 W13G18    29.90S WCI   7
MONTICELLO +   CLOUDY    16   8  68 W9        29.93R WCI   5
RENSSELAER +   CLOUDY    18  10  73 W10       29.94S WCI   6
VALPARAISO     LGT SNOW  16  10  77 MISG      29.91S

$$

LMZ046-743>745-100300-
SOUTHERN LAKE MICHIGAN

STATION/POSITION TIME  TEMP    WIND        PRES    WAVE
                       AIR SEA DIR/SP/G            HT
                 (UTC) (F)     (DEG/KT/KT) (MB)    (FT)
BURNS HARBOR     0121   20     310/ 18/ 21 1013.5S
MICHIGAN CITY    0100   19     260/ 23/ 26   N/A

$$

INZ004-005-014>016-021>024-100300-
NORTH CENTRAL INDIANA

CITY           SKY/WX    TMP DP  RH WIND       PRES   REMARKS
ELKHART        LGT SNOW  19  18  93 W16       29.85R WCI   5
GOSHEN         LGT SNOW  20  15  81 W15       29.84S WCI   6
LOGANSPORT +   CLOUDY    18  10  73 W12G17    29.92S WCI   5
PERU/GRISSOM   FLURRIES  17  11  78 W12       29.88S WCI   4
ROCHESTER +    FLURRIES  19  10  68 W14       29.89S WCI   6
SOUTH BEND     LGT SNOW  18  15  88 W13       29.86S FOG     WCI   5
WARSAW +       FLURRIES  19  14  79 W15G22    29.86R WCI   5

$$

INZ006>009-017-018-025>027-100300-
NORTHEAST INDIANA

CITY           SKY/WX    TMP DP  RH WIND       PRES   REMARKS
ANGOLA *+      CLOUDY    21  18  86 W10       29.78R WCI  10
AUBURN +       FLURRIES  23  18  80 W12G18    29.82S WCI  12
FORT WAYNE     FLURRIES  20  13  74 W16       29.85S WCI   6
HUNTINGTON +   FLURRIES  18  11  73 W10G18    29.87R WCI   6

$$

INZ028-029-035-036-043>045-051>053-100300-
WEST CENTRAL INDIANA

CITY           SKY/WX    TMP DP  RH WIND       PRES   REMARKS
GREENCASTLE +  CLOUDY    18   3  53 W9        29.97R WCI   6
LAFAYETTE      CLOUDY    16   9  74 W13       29.96R WCI   2
TERRE HAUTE    CLOUDY    18  10  71 NW10      30.00F WCI   6

$$

INZ030>032-037>040-046>048-054>057-064-065-100300-
CENTRAL INDIANA

CITY           SKY/WX    TMP DP  RH WIND       PRES   REMARKS
FISHERS *+     CLOUDY    16  12  86 W14       29.94R WCI   1
FRANKFORT +    MOCLDY    15   4  61 W15       29.94S WCI   0
GREENWOOD *+   CLOUDY    18  14  86 W10G16    29.95R WCI   6
INDIANAPOLIS   FLURRIES  16   9  74 W15       29.94S WCI   1
-EAGLE CREEK   MOCLDY    16   9  74 W15       29.94R WCI   1
KOKOMO *+      CLOUDY    18   9  68 W17       29.90S WCI   2
MARION +       CLOUDY    17   7  65 W15       29.90R WCI   2
MT COMFORT *+  CLOUDY    16  12  86 W13       29.93S WCI   2
SHELBYVILLE    CLOUDY    17  10  74 W14       29.93R WCI   3
ZIONSVILLE +   CLOUDY    15   9  76 W8        29.93S WCI   4

$$

INZ033-034-041-042-049-050-058-059-100300-
EAST CENTRAL INDIANA

CITY           SKY/WX    TMP DP  RH WIND       PRES   REMARKS
MUNCIE         CLOUDY    18  10  71 W13       29.88S WCI   5

$$

INZ060-061-067>069-081>083-085>088-100300-
SOUTHWEST INDIANA

CITY           SKY/WX    TMP DP  RH WIND       PRES   REMARKS
EVANSVILLE     CLOUDY    21  13  71 W7        30.08R WCI  12
HUNTINGBURG *+ CLOUDY    19  10  68 W14       30.04S WCI   6
WASHINGTON +   CLOUDY    19   9  65 NW9       30.03S WCI   7

$$

INZ062-063-066-070>080-084-089>092-100300-
SOUTH CENTRAL AND SOUTHEAST INDIANA

CITY           SKY/WX    TMP DP  RH WIND       PRES   REMARKS
BEDFORD +      CLOUDY    18  14  86 W6        29.99R WCI   9
BLOOMINGTON    LGT SNOW  17  11  77 W6        29.97R WCI   9
MADISON *+     CLOUDY    21  14  73 W7        29.97R WCI  13
NORTH VERNON + LGT SNOW  19  12  73 W12       29.96R WCI   7
SEYMOUR +      LGT SNOW  21  14  73 W9        29.98R WCI  11

$$





USA.gov is the U.S. government's official web portal to all federal, state and local government web resources and services.